TimePDT,TemperatureF,Dew PointF,Humidity,Sea Level PressureIn,VisibilityMPH,Wind Direction,Wind SpeedMPH,Gust SpeedMPH,PrecipitationIn,Events,Conditions,WindDirDegrees,DateUTC
12:56 AM,57.9,50.0,75,29.93,10.0,ESE,5.8,-,N/A,,Clear,110,2014-06-03 07:56:00
1:54 AM,57.2,48.2,72,29.91,10.0,SE,5.8,-,N/A,,Mostly Cloudy,130,2014-06-03 08:54:00
1:56 AM,57.0,48.9,74,29.92,10.0,SSE,5.8,-,N/A,,Mostly Cloudy,150,2014-06-03 08:56:00
2:56 AM,57.0,48.9,74,29.92,10.0,SE,5.8,-,N/A,,Overcast,140,2014-06-03 09:56:00
3:56 AM,57.0,48.9,74,29.92,10.0,Calm,Calm,-,N/A,,Overcast,0,2014-06-03 10:56:00
4:56 AM,57.0,48.9,74,29.93,10.0,SE,5.8,-,N/A,,Overcast,140,2014-06-03 11:56:00
5:56 AM,57.0,48.9,74,29.94,10.0,SE,6.9,-,N/A,,Overcast,140,2014-06-03 12:56:00
6:56 AM,57.0,48.0,72,29.95,10.0,SE,6.9,-,N/A,,Overcast,130,2014-06-03 13:56:00
7:56 AM,57.9,48.0,70,29.95,10.0,Calm,Calm,-,N/A,,Overcast,0,2014-06-03 14:56:00
8:46 AM,60.8,48.2,63,29.95,10.0,ESE,5.8,-,N/A,,Scattered Clouds,120,2014-06-03 15:46:00
8:53 AM,60.8,48.2,63,29.95,10.0,SE,5.8,-,N/A,,Mostly Cloudy,130,2014-06-03 15:53:00
8:56 AM,60.1,48.0,64,29.96,10.0,ESE,5.8,-,N/A,,Scattered Clouds,110,2014-06-03 15:56:00
9:56 AM,63.0,48.0,58,29.95,10.0,Calm,Calm,-,N/A,,Clear,0,2014-06-03 16:56:00
10:56 AM,68.0,50.0,52,29.95,10.0,Calm,Calm,-,N/A,,Clear,0,2014-06-03 17:56:00
11:56 AM,68.0,50.0,52,29.94,10.0,North,5.8,-,N/A,,Clear,10,2014-06-03 18:56:00
12:56 PM,70.0,51.1,51,29.93,10.0,North,6.9,-,N/A,,Clear,360,2014-06-03 19:56:00
1:56 PM,71.1,51.1,49,29.91,10.0,North,11.5,-,N/A,,Clear,350,2014-06-03 20:56:00
2:56 PM,71.1,54.0,55,29.91,10.0,NNW,13.8,-,N/A,,Clear,340,2014-06-03 21:56:00
3:56 PM,70.0,54.0,57,29.89,10.0,NNW,11.5,-,N/A,,Clear,330,2014-06-03 22:56:00
4:56 PM,68.0,54.0,61,29.88,10.0,NNW,11.5,-,N/A,,Clear,330,2014-06-03 23:56:00
5:56 PM,68.0,54.0,61,29.88,10.0,NNW,11.5,-,N/A,,Clear,330,2014-06-04 00:56:00
6:56 PM,64.9,54.0,68,29.88,10.0,NW,10.4,-,N/A,,Clear,320,2014-06-04 01:56:00
7:56 PM,62.1,54.0,75,29.89,10.0,NNW,12.7,-,N/A,,Clear,340,2014-06-04 02:56:00
8:56 PM,60.1,54.0,80,29.89,10.0,North,11.5,-,N/A,,Clear,350,2014-06-04 03:56:00
9:56 PM,59.0,53.1,81,29.91,10.0,NNW,5.8,-,N/A,,Clear,330,2014-06-04 04:56:00
10:56 PM,57.9,53.1,84,29.92,10.0,NNW,6.9,-,N/A,,Clear,340,2014-06-04 05:56:00
11:56 PM,57.9,53.1,84,29.92,10.0,North,4.6,-,N/A,,Scattered Clouds,10,2014-06-04 06:56:00